This is the latest recevied weather packets stored in our database for station/object EB2EMZ-W. If no packets are shown the sender has not sent any weather packets the latest 10 day(s).
| Time | Temp. | Humidity | Pressure | Rain* | Wind** | Luminosity | Snow |
|---|---|---|---|---|---|---|---|
| 1778042390 | 10.56° C | 85% | 997 hPa | 0 mm | - | - | - |
| 1778040570 | 10.56° C | 85% | 1041 hPa | 0 mm | - | - | - |
| 1778038749 | 11.11° C | 85% | 997 hPa | 0 mm | - | - | - |
| 1778036930 | 11.11° C | 84% | 997 hPa | 0 mm | - | - | - |
| 1778035110 | 11.11° C | 83% | 997 hPa | 0 mm | - | - | - |
| 1778033290 | 11.11° C | 83% | 997 hPa | 0 mm | - | - | - |
| 1778031469 | 11.67° C | 83% | 997 hPa | 0 mm | - | - | - |
| 1778029648 | 11.67° C | 83% | 997 hPa | 0 mm | - | - | - |
| 1778027828 | 11.67° C | 84% | 998 hPa | 0 mm | - | - | - |
| 1778026008 | 11.67° C | 85% | 998 hPa | 0 mm | - | - | - |
| 1778024189 | 11.67° C | 84% | 998 hPa | 0 mm | - | - | - |
| 1778021144 | 11.11° C | 85% | 998 hPa | 0 mm | - | - | - |
| 1778019332 | 11.11° C | 85% | 998 hPa | 0 mm | - | - | - |
| 1778017519 | 11.11° C | 85% | 998 hPa | 0 mm | - | - | - |
| 1778015706 | 11.11° C | 85% | 998 hPa | 0 mm | - | - | - |
| 1778013892 | 11.67° C | 85% | 998 hPa | 0 mm | - | - | - |
| 1778012079 | 12.22° C | 83% | 997 hPa | 0 mm | - | - | - |
| 1778010267 | 12.78° C | 79% | 997 hPa | 0 mm | - | - | - |
| 1778008453 | 13.33° C | 77% | 997 hPa | 0 mm | - | - | - |
| 1778006640 | 13.33° C | 75% | 997 hPa | 0 mm | - | - | - |
| 1778004826 | 13.89° C | 68% | 997 hPa | 1.02 mm | - | - | - |
| 1778003013 | 13.89° C | 67% | 997 hPa | 1.02 mm | - | - | - |
| 1778001201 | 13.33° C | 65% | 997 hPa | 0 mm | - | - | - |
| 1777999386 | 14.44° C | 68% | 997 hPa | 3.05 mm | - | - | - |
| 1777997572 | 15° C | 63% | 997 hPa | 3.05 mm | - | - | - |
* Rain latest hour (hover to see other rain measurements)
** Current wind speed in m/s (hover to see current wind gust speed)